Location: Briis
(48.6240°N, 2.1211°E)
Time: 19:08:58
(UTC+00:00)

Cosmos 1725 Rocket - Pass Details

Date: 25 September 2020
Orbit: 961 x 991 km, 82.9° (Epoch: 21 October)

Event Time Altitude Azimuth Distance (km) Brightness Sun altitude
Rises 04:41:07 0° 348° (NNW) 3,663 7.0 -11.0°
Reaches altitude 10° 04:43:39 10° 346° (NNW) 2,710 6.3 -10.6°
Maximum altitude 04:49:46 67° 266° (W) 1,042 4.0 -9.6°
Drops below altitude 10° 04:55:51 10° 185° (S) 2,690 6.2 -8.6°
Sets 04:58:21 0° 183° (S) 3,634 6.9 -8.2°
